owner,sensor,date,latitude,longitude,vertical_datum,wind_speed,wind_to_direction,wind_speed_of_gust,qcFlag 
TABS,ioos:station:wmo:42043:1,2019-11-01T04:00:00Z,28.9818,-94.9186,4.0,7.72,15.9,10.37,'11111222,11111222,11111222' 
TABS,ioos:station:wmo:42043:1,2019-11-01T05:00:00Z,28.9818,-94.9186,4.0,7.32,32.0,9.63,'11111222,11111222,11111222' 
TABS,ioos:station:wmo:42043:1,2019-11-01T06:00:00Z,28.9818,-94.9186,4.0,7.59,26.6,9.87,'11111222,11111222,11111222' 
TABS,ioos:station:wmo:42043:1,2019-11-01T07:00:00Z,28.9818,-94.9186,4.0,6.97,26.0,9.59,'11111222,11111222,11111222' 
TABS,ioos:station:wmo:42043:1,2019-11-01T08:00:00Z,28.9818,-94.9186,4.0,6.67,28.9,8.89,'11111222,11111222,11111222' 
TABS,ioos:station:wmo:42043:1,2019-11-01T09:00:00Z,28.9818,-94.9186,4.0,6.67,32.1,9.53,'11111222,11111222,11111222' 
TABS,ioos:station:wmo:42043:1,2019-11-01T10:00:00Z,28.9818,-94.9186,4.0,6.17,42.1,8.77,'11111222,11111222,11111222' 
TABS,ioos:station:wmo:42043:1,2019-11-01T11:00:00Z,28.9818,-94.9186,4.0,6.52,40.5,9.19,'11111222,11111222,11111222' 
TABS,ioos:station:wmo:42043:1,2019-11-01T12:00:00Z,28.9818,-94.9186,4.0,6.01,37.7,8.31,'11111222,11111222,11111222' 
TABS,ioos:station:wmo:42043:1,2019-11-01T13:00:00Z,28.9818,-94.9186,4.0,6.06,50.2,8.8,'11111222,11111222,11111222' 
TABS,ioos:station:wmo:42043:1,2019-11-01T14:00:00Z,28.9818,-94.9186,4.0,5.05,62.8,7.51,'11111222,11111222,11111222' 
TABS,ioos:station:wmo:42043:1,2019-11-01T15:00:00Z,28.9818,-94.9186,4.0,5.54,53.0,7.29,'11111222,11111222,11111222' 
TABS,ioos:station:wmo:42043:1,2019-11-01T16:00:00Z,28.9818,-94.9186,4.0,5.29,56.7,7.23,'11111222,11111222,11111222' 
TABS,ioos:station:wmo:42043:1,2019-11-01T17:00:00Z,28.9818,-94.9186,4.0,4.09,65.6,6.06,'11111222,11111222,11111222' 
TABS,ioos:station:wmo:42043:1,2019-11-01T18:00:00Z,28.9818,-94.9186,4.0,3.82,52.1,5.85,'11111222,11111222,11111222' 
TABS,ioos:station:wmo:42043:1,2019-11-01T19:00:00Z,28.9818,-94.9186,4.0,3.7,63.5,6.35,'11111222,11111222,11111222' 
TABS,ioos:station:wmo:42043:1,2019-11-01T20:00:00Z,28.9818,-94.9186,4.0,4.03,65.0,5.64,'11111222,11111222,11111222' 
TABS,ioos:station:wmo:42043:1,2019-11-01T21:00:00Z,28.9818,-94.9186,4.0,4.1,72.5,5.53,'11111222,11111222,11111222' 
TABS,ioos:station:wmo:42043:1,2019-11-01T22:00:00Z,28.9818,-94.9186,4.0,3.44,72.0,5.59,'11111222,11111222,11111222' 
TABS,ioos:station:wmo:42043:1,2019-11-01T23:00:00Z,28.9818,-94.9186,4.0,3.35,58.3,4.84,'11111222,11111222,11111222' 
TABS,ioos:station:wmo:42043:1,2019-11-01T23:30:00Z,28.9818,-94.9186,4.0,4.1,75.7,6.13,'11111222,11111222,11111222' 
TABS,ioos:station:wmo:42043:1,2019-11-02T04:00:00Z,28.9818,-94.9186,4.0,2.62,73.5,4.23,'11111222,11111222,11111222' 
TABS,ioos:station:wmo:42043:1,2019-11-02T05:00:00Z,28.9818,-94.9186,4.0,2.63,43.5,3.94,'11111222,11111222,11111222' 
TABS,ioos:station:wmo:42043:1,2019-11-02T06:00:00Z,28.9818,-94.9186,4.0,3.38,36.8,4.7,'11111222,11111222,11111222' 
TABS,ioos:station:wmo:42043:1,2019-11-02T07:00:00Z,28.9818,-94.9186,4.0,3.44,27.2,4.78,'11111222,11111222,11111222' 
TABS,ioos:station:wmo:42043:1,2019-11-02T08:00:00Z,28.9818,-94.9186,4.0,4.84,15.4,6.47,'11111222,11111222,11111222' 
TABS,ioos:station:wmo:42043:1,2019-11-02T09:00:00Z,28.9818,-94.9186,4.0,5.86,13.2,7.77,'11111222,11111222,11111222' 
TABS,ioos:station:wmo:42043:1,2019-11-02T10:00:00Z,28.9818,-94.9186,4.0,5.0,11.0,6.65,'11111222,11111222,11111222' 
TABS,ioos:station:wmo:42043:1,2019-11-02T11:00:00Z,28.9818,-94.9186,4.0,5.67,14.3,7.18,'11111222,11111222,11111222' 
TABS,ioos:station:wmo:42043:1,2019-11-02T12:00:00Z,28.9818,-94.9186,4.0,6.53,14.7,8.19,'11111222,11111222,11111222' 
TABS,ioos:station:wmo:42043:1,2019-11-02T13:00:00Z,28.9818,-94.9186,4.0,6.08,13.8,8.32,'11111222,11111222,11111222' 
TABS,ioos:station:wmo:42043:1,2019-11-02T14:00:00Z,28.9818,-94.9186,4.0,6.76,21.5,8.22,'11111222,11111222,11111222' 
TABS,ioos:station:wmo:42043:1,2019-11-02T15:00:00Z,28.9818,-94.9186,4.0,7.09,21.7,9.16,'11111222,11111222,11111222' 
TABS,ioos:station:wmo:42043:1,2019-11-02T16:00:00Z,28.9818,-94.9186,4.0,7.7,21.0,9.13,'11111222,11111222,11111222' 
TABS,ioos:station:wmo:42043:1,2019-11-02T17:00:00Z,28.9818,-94.9186,4.0,7.18,21.6,8.76,'11111222,11111222,11111222' 
TABS,ioos:station:wmo:42043:1,2019-11-02T18:00:00Z,28.9818,-94.9186,4.0,5.78,14.9,7.74,'11111222,11111222,11111222' 
TABS,ioos:station:wmo:42043:1,2019-11-02T19:00:00Z,28.9818,-94.9186,4.0,6.33,28.3,8.17,'11111222,11111222,11111222' 
TABS,ioos:station:wmo:42043:1,2019-11-02T20:00:00Z,28.9818,-94.9186,4.0,5.36,10.6,7.3,'11111222,11111222,11111222' 
TABS,ioos:station:wmo:42043:1,2019-11-02T21:00:00Z,28.9818,-94.9186,4.0,6.14,11.1,8.06,'11111222,11111222,11111222' 
TABS,ioos:station:wmo:42043:1,2019-11-02T22:00:00Z,28.9818,-94.9186,4.0,7.19,4.2,8.69,'11111222,11111222,11111222' 
TABS,ioos:station:wmo:42043:1,2019-11-02T23:00:00Z,28.9818,-94.9186,4.0,7.42,15.3,9.69,'11111222,11111222,11111222' 
TABS,ioos:station:wmo:42043:1,2019-11-02T23:30:00Z,28.9818,-94.9186,4.0,6.14,9.4,7.92,'11111222,11111222,11111222' 
TABS,ioos:station:wmo:42043:1,2019-11-03T04:00:00Z,28.9818,-94.9186,4.0,6.66,33.8,8.38,'11111222,11111222,11111222' 
TABS,ioos:station:wmo:42043:1,2019-11-03T05:00:00Z,28.9818,-94.9186,4.0,6.2,39.4,7.6,'11111222,11111222,11111222' 
TABS,ioos:station:wmo:42043:1,2019-11-03T06:00:00Z,28.9818,-94.9186,4.0,5.99,55.0,7.28,'11111222,11111222,11111222' 
TABS,ioos:station:wmo:42043:1,2019-11-03T07:00:00Z,28.9818,-94.9186,4.0,5.35,51.0,7.16,'11111222,11111222,11111222' 
TABS,ioos:station:wmo:42043:1,2019-11-03T08:00:00Z,28.9818,-94.9186,4.0,5.56,44.9,7.52,'11111222,11111222,11111222' 
TABS,ioos:station:wmo:42043:1,2019-11-03T09:00:00Z,28.9818,-94.9186,4.0,5.3,65.2,6.97,'11111222,11111222,11111222' 
TABS,ioos:station:wmo:42043:1,2019-11-03T10:00:00Z,28.9818,-94.9186,4.0,5.71,59.4,7.53,'11111222,11111222,11111222' 
TABS,ioos:station:wmo:42043:1,2019-11-03T11:00:00Z,28.9818,-94.9186,4.0,5.68,67.8,7.86,'11111222,11111222,11111222' 
TABS,ioos:station:wmo:42043:1,2019-11-03T12:00:00Z,28.9818,-94.9186,4.0,6.09,65.2,8.07,'11111222,11111222,11111222' 
TABS,ioos:station:wmo:42043:1,2019-11-03T13:00:00Z,28.9818,-94.9186,4.0,6.28,70.2,8.09,'11111222,11111222,11111222' 
TABS,ioos:station:wmo:42043:1,2019-11-03T14:00:00Z,28.9818,-94.9186,4.0,6.51,73.2,8.16,'11111222,11111222,11111222' 
TABS,ioos:station:wmo:42043:1,2019-11-03T15:00:00Z,28.9818,-94.9186,4.0,6.26,82.2,8.43,'11111222,11111222,11111222' 
TABS,ioos:station:wmo:42043:1,2019-11-03T16:00:00Z,28.9818,-94.9186,4.0,6.15,77.8,8.18,'11111222,11111222,11111222' 
TABS,ioos:station:wmo:42043:1,2019-11-03T17:00:00Z,28.9818,-94.9186,4.0,6.12,79.5,8.06,'11111222,11111222,11111222' 
TABS,ioos:station:wmo:42043:1,2019-11-03T18:00:00Z,28.9818,-94.9186,4.0,5.14,86.0,7.45,'11111222,11111222,11111222' 
TABS,ioos:station:wmo:42043:1,2019-11-03T19:00:00Z,28.9818,-94.9186,4.0,5.04,88.1,6.85,'11111222,11111222,11111222' 
TABS,ioos:station:wmo:42043:1,2019-11-03T20:00:00Z,28.9818,-94.9186,4.0,5.04,80.5,6.53,'11111222,11111222,11111222' 
TABS,ioos:station:wmo:42043:1,2019-11-03T21:00:00Z,28.9818,-94.9186,4.0,4.52,83.1,6.13,'11111222,11111222,11111222' 
TABS,ioos:station:wmo:42043:1,2019-11-03T22:00:00Z,28.9818,-94.9186,4.0,4.02,94.5,6.04,'11111222,11111222,11111222' 
TABS,ioos:station:wmo:42043:1,2019-11-03T23:00:00Z,28.9818,-94.9186,4.0,4.38,102.1,6.11,'11111222,11111222,11111222' 
TABS,ioos:station:wmo:42043:1,2019-11-03T23:30:00Z,28.9818,-94.9186,4.0,4.91,114.6,6.71,'11111222,11111222,11111222' 
TABS,ioos:station:wmo:42043:1,2019-11-04T05:00:00Z,28.9818,-94.9186,4.0,5.15,128.6,6.39,'11111222,11111222,11111222' 
TABS,ioos:station:wmo:42043:1,2019-11-04T15:30:00Z,28.9818,-94.9186,4.0,2.81,116.4,3.41,'11111222,11111222,11111222' 
TABS,ioos:station:wmo:42043:1,2019-11-04T16:00:00Z,28.9818,-94.9186,4.0,2.22,117.2,2.62,'11111222,11111222,11111222' 
TABS,ioos:station:wmo:42043:1,2019-11-04T17:00:00Z,28.9818,-94.9186,4.0,2.73,118.0,3.05,'11111222,11111222,11111222' 
TABS,ioos:station:wmo:42043:1,2019-11-04T18:00:00Z,28.9818,-94.9186,4.0,1.93,102.2,2.12,'11111222,11111222,11111222' 
TABS,ioos:station:wmo:42043:1,2019-11-04T19:00:00Z,28.9818,-94.9186,4.0,2.4,103.5,2.8,'11111222,11111222,11111222' 
TABS,ioos:station:wmo:42043:1,2019-11-04T20:00:00Z,28.9818,-94.9186,4.0,2.83,111.7,3.19,'11111222,11111222,11111222' 
TABS,ioos:station:wmo:42043:1,2019-11-04T21:00:00Z,28.9818,-94.9186,4.0,3.26,119.6,3.83,'11111222,11111222,11111222' 
TABS,ioos:station:wmo:42043:1,2019-11-04T22:00:00Z,28.9818,-94.9186,4.0,3.2,127.0,3.63,'11111222,11111222,11111222' 
TABS,ioos:station:wmo:42043:1,2019-11-04T23:00:00Z,28.9818,-94.9186,4.0,2.65,129.3,3.11,'11111222,11111222,11111222' 
TABS,ioos:station:wmo:42043:1,2019-11-04T23:30:00Z,28.9818,-94.9186,4.0,3.52,145.4,4.27,'11111222,11111222,11111222' 
TABS,ioos:station:wmo:42043:1,2019-11-05T05:00:00Z,28.9818,-94.9186,4.0,2.36,126.1,2.67,'11111222,11111222,11111222' 
TABS,ioos:station:wmo:42043:1,2019-11-05T06:00:00Z,28.9818,-94.9186,4.0,1.98,150.4,2.27,'11111222,11111222,11111222' 
TABS,ioos:station:wmo:42043:1,2019-11-05T07:00:00Z,28.9818,-94.9186,4.0,1.68,121.6,2.02,'11111222,11111222,11111222' 
TABS,ioos:station:wmo:42043:1,2019-11-05T08:00:00Z,28.9818,-94.9186,4.0,1.54,153.9,1.92,'11111222,11111222,11111222' 
TABS,ioos:station:wmo:42043:1,2019-11-05T09:00:00Z,28.9818,-94.9186,4.0,2.08,60.5,2.43,'11111222,11111222,11111222' 
TABS,ioos:station:wmo:42043:1,2019-11-05T10:00:00Z,28.9818,-94.9186,4.0,2.04,55.1,2.46,'11111222,11111222,11111222' 
TABS,ioos:station:wmo:42043:1,2019-11-05T11:00:00Z,28.9818,-94.9186,4.0,2.02,45.6,2.36,'11111222,11111222,11111222' 
TABS,ioos:station:wmo:42043:1,2019-11-05T12:00:00Z,28.9818,-94.9186,4.0,2.33,23.5,2.63,'11111222,11111222,11111222' 
TABS,ioos:station:wmo:42043:1,2019-11-05T13:00:00Z,28.9818,-94.9186,4.0,1.95,33.2,2.21,'11111222,11111222,11111222' 
TABS,ioos:station:wmo:42043:1,2019-11-05T14:00:00Z,28.9818,-94.9186,4.0,2.56,36.7,2.95,'11111222,11111222,11111222' 
TABS,ioos:station:wmo:42043:1,2019-11-05T15:00:00Z,28.9818,-94.9186,4.0,2.14,67.6,2.45,'11111222,11111222,11111222' 
TABS,ioos:station:wmo:42043:1,2019-11-05T16:00:00Z,28.9818,-94.9186,4.0,2.59,77.6,3.04,'11111222,11111222,11111222' 
TABS,ioos:station:wmo:42043:1,2019-11-05T17:00:00Z,28.9818,-94.9186,4.0,3.3,93.3,3.68,'11111222,11111222,11111222' 
TABS,ioos:station:wmo:42043:1,2019-11-05T18:00:00Z,28.9818,-94.9186,4.0,3.41,99.9,3.83,'11111222,11111222,11111222' 
TABS,ioos:station:wmo:42043:1,2019-11-05T19:00:00Z,28.9818,-94.9186,4.0,3.4,89.4,3.83,'11111222,11111222,11111222' 
TABS,ioos:station:wmo:42043:1,2019-11-05T20:00:00Z,28.9818,-94.9186,4.0,3.59,93.3,4.04,'11111222,11111222,11111222' 
TABS,ioos:station:wmo:42043:1,2019-11-05T21:00:00Z,28.9818,-94.9186,4.0,3.53,95.5,3.93,'11111222,11111222,11111222' 
TABS,ioos:station:wmo:42043:1,2019-11-05T22:00:00Z,28.9818,-94.9186,4.0,3.8,93.9,4.41,'11111222,11111222,11111222' 
TABS,ioos:station:wmo:42043:1,2019-11-05T23:00:00Z,28.9818,-94.9186,4.0,3.88,104.4,4.32,'11111222,11111222,11111222' 
TABS,ioos:station:wmo:42043:1,2019-11-05T23:30:00Z,28.9818,-94.9186,4.0,4.33,101.0,4.89,'11111222,11111222,11111222' 
TABS,ioos:station:wmo:42043:1,2019-11-06T05:00:00Z,28.9818,-94.9186,4.0,4.42,96.9,5.37,'11111222,11111222,11111222' 
TABS,ioos:station:wmo:42043:1,2019-11-06T06:00:00Z,28.9818,-94.9186,4.0,4.55,95.4,5.18,'11111222,11111222,11111222' 
TABS,ioos:station:wmo:42043:1,2019-11-06T07:00:00Z,28.9818,-94.9186,4.0,5.13,94.6,6.04,'11111222,11111222,11111222' 
TABS,ioos:station:wmo:42043:1,2019-11-06T08:00:00Z,28.9818,-94.9186,4.0,5.42,91.6,6.55,'11111222,11111222,11111222' 
TABS,ioos:station:wmo:42043:1,2019-11-06T09:00:00Z,28.9818,-94.9186,4.0,5.6,89.9,6.68,'11111222,11111222,11111222' 
TABS,ioos:station:wmo:42043:1,2019-11-06T10:00:00Z,28.9818,-94.9186,4.0,5.83,92.9,6.67,'11111222,11111222,11111222' 
TABS,ioos:station:wmo:42043:1,2019-11-06T11:00:00Z,28.9818,-94.9186,4.0,5.49,94.0,6.31,'11111222,11111222,11111222' 
TABS,ioos:station:wmo:42043:1,2019-11-06T12:00:00Z,28.9818,-94.9186,4.0,5.47,87.9,6.44,'11111222,11111222,11111222' 
TABS,ioos:station:wmo:42043:1,2019-11-06T13:00:00Z,28.9818,-94.9186,4.0,6.11,89.4,7.45,'11111222,11111222,11111222' 
TABS,ioos:station:wmo:42043:1,2019-11-06T14:00:00Z,28.9818,-94.9186,4.0,6.34,86.8,7.67,'11111222,11111222,11111222' 
TABS,ioos:station:wmo:42043:1,2019-11-06T15:00:00Z,28.9818,-94.9186,4.0,6.04,84.5,7.74,'11111222,11111222,11111222' 
TABS,ioos:station:wmo:42043:1,2019-11-06T16:00:00Z,28.9818,-94.9186,4.0,5.79,89.8,7.23,'11111222,11111222,11111222' 
TABS,ioos:station:wmo:42043:1,2019-11-06T17:00:00Z,28.9818,-94.9186,4.0,6.16,87.3,7.59,'11111222,11111222,11111222' 
TABS,ioos:station:wmo:42043:1,2019-11-06T18:00:00Z,28.9818,-94.9186,4.0,6.8,84.2,8.15,'11111222,11111222,11111222' 
TABS,ioos:station:wmo:42043:1,2019-11-06T19:00:00Z,28.9818,-94.9186,4.0,6.72,83.0,7.82,'11111222,11111222,11111222' 
TABS,ioos:station:wmo:42043:1,2019-11-06T20:00:00Z,28.9818,-94.9186,4.0,5.92,79.7,7.32,'11111222,11111222,11111222' 
TABS,ioos:station:wmo:42043:1,2019-11-06T21:00:00Z,28.9818,-94.9186,4.0,6.02,74.4,7.77,'11111222,11111222,11111222' 
TABS,ioos:station:wmo:42043:1,2019-11-06T22:00:00Z,28.9818,-94.9186,4.0,6.4,73.1,7.58,'11111222,11111222,11111222' 
TABS,ioos:station:wmo:42043:1,2019-11-06T23:00:00Z,28.9818,-94.9186,4.0,6.5,80.4,7.92,'11111222,11111222,11111222' 
TABS,ioos:station:wmo:42043:1,2019-11-06T23:30:00Z,28.9818,-94.9186,4.0,6.84,85.7,7.82,'11111222,11111222,11111222' 
TABS,ioos:station:wmo:42043:1,2019-11-07T04:30:00Z,28.9818,-94.9186,4.0,4.75,110.5,5.62,'11111222,11111222,11111222' 
TABS,ioos:station:wmo:42043:1,2019-11-07T05:30:00Z,28.9818,-94.9186,4.0,3.52,117.0,4.47,'11111222,11111222,11111222' 
TABS,ioos:station:wmo:42043:1,2019-11-07T07:00:00Z,28.9818,-94.9186,4.0,2.86,128.4,3.46,'11111222,11111222,11111222' 
TABS,ioos:station:wmo:42043:1,2019-11-07T08:00:00Z,28.9818,-94.9186,4.0,2.16,127.1,2.47,'11111222,11111222,11111222' 
TABS,ioos:station:wmo:42043:1,2019-11-07T09:00:00Z,28.9818,-94.9186,4.0,1.73,108.4,2.01,'11111222,11111222,11111222' 
TABS,ioos:station:wmo:42043:1,2019-11-07T10:00:00Z,28.9818,-94.9186,4.0,0.95,85.0,1.16,'11111222,11111222,11111222' 
TABS,ioos:station:wmo:42043:1,2019-11-07T11:00:00Z,28.9818,-94.9186,4.0,1.55,53.4,1.76,'11111222,11111222,11111222' 
TABS,ioos:station:wmo:42043:1,2019-11-07T12:00:00Z,28.9818,-94.9186,4.0,2.03,50.4,2.41,'11111222,11111222,11111222' 
TABS,ioos:station:wmo:42043:1,2019-11-07T13:00:00Z,28.9818,-94.9186,4.0,2.53,44.3,2.83,'11111222,11111222,11111222' 
TABS,ioos:station:wmo:42043:1,2019-11-07T14:00:00Z,28.9818,-94.9186,4.0,2.91,26.7,3.24,'11111222,11111222,11111222' 
TABS,ioos:station:wmo:42043:1,2019-11-07T15:00:00Z,28.9818,-94.9186,4.0,3.39,34.5,3.84,'11111222,11111222,11111222' 
TABS,ioos:station:wmo:42043:1,2019-11-07T16:00:00Z,28.9818,-94.9186,4.0,3.06,51.1,3.52,'11111222,11111222,11111222' 
TABS,ioos:station:wmo:42043:1,2019-11-07T17:00:00Z,28.9818,-94.9186,4.0,3.44,75.4,4.12,'11111222,11111222,11111222' 
TABS,ioos:station:wmo:42043:1,2019-11-07T18:00:00Z,28.9818,-94.9186,4.0,3.58,82.9,4.32,'11111222,11111222,11111222' 
TABS,ioos:station:wmo:42043:1,2019-11-07T19:00:00Z,28.9818,-94.9186,4.0,2.85,90.3,3.34,'11111222,11111222,11111222' 
TABS,ioos:station:wmo:42043:1,2019-11-07T19:30:00Z,28.9818,-94.9186,4.0,2.7,97.7,3.13,'11111222,11111222,11111222' 
TABS,ioos:station:wmo:42043:1,2019-11-07T21:00:00Z,28.9818,-94.9186,4.0,9.26,8.6,12.39,'11111222,11111222,11111222' 
TABS,ioos:station:wmo:42043:1,2019-11-07T22:00:00Z,28.9818,-94.9186,4.0,12.14,28.0,14.11,'11111222,11111222,11111222' 
TABS,ioos:station:wmo:42043:1,2019-11-07T23:00:00Z,28.9818,-94.9186,4.0,11.41,42.7,14.14,'11111222,11111222,11111222' 
TABS,ioos:station:wmo:42043:1,2019-11-07T23:30:00Z,28.9818,-94.9186,4.0,9.5,42.4,11.37,'11111222,11111222,11111222' 
TABS,ioos:station:wmo:42043:1,2019-11-08T05:00:00Z,28.9818,-94.9186,4.0,10.3,354.9,12.11,'11111222,11111222,11111222' 
TABS,ioos:station:wmo:42043:1,2019-11-08T06:00:00Z,28.9818,-94.9186,4.0,10.33,5.5,13.09,'11111222,11111222,11111222' 
TABS,ioos:station:wmo:42043:1,2019-11-08T07:00:00Z,28.9818,-94.9186,4.0,10.15,1.7,11.86,'11111222,11111222,11111222' 
TABS,ioos:station:wmo:42043:1,2019-11-08T08:00:00Z,28.9818,-94.9186,4.0,10.5,4.5,12.27,'11111222,11111222,11111222' 
TABS,ioos:station:wmo:42043:1,2019-11-08T09:00:00Z,28.9818,-94.9186,4.0,10.55,5.2,12.62,'11111222,11111222,11111222' 
TABS,ioos:station:wmo:42043:1,2019-11-08T10:00:00Z,28.9818,-94.9186,4.0,10.19,4.1,12.85,'11111222,11111222,11111222' 
TABS,ioos:station:wmo:42043:1,2019-11-08T11:00:00Z,28.9818,-94.9186,4.0,11.02,11.4,13.7,'11111222,11111222,11111222' 
TABS,ioos:station:wmo:42043:1,2019-11-08T12:00:00Z,28.9818,-94.9186,4.0,9.86,19.7,12.34,'11111222,11111222,11111222' 
TABS,ioos:station:wmo:42043:1,2019-11-08T13:00:00Z,28.9818,-94.9186,4.0,9.86,19.1,11.92,'11111222,11111222,11111222' 
TABS,ioos:station:wmo:42043:1,2019-11-08T14:00:00Z,28.9818,-94.9186,4.0,9.18,15.8,11.33,'11111222,11111222,11111222' 
TABS,ioos:station:wmo:42043:1,2019-11-08T15:00:00Z,28.9818,-94.9186,4.0,8.88,16.6,10.94,'11111222,11111222,11111222' 
TABS,ioos:station:wmo:42043:1,2019-11-08T16:00:00Z,28.9818,-94.9186,4.0,9.46,21.1,11.78,'11111222,11111222,11111222' 
TABS,ioos:station:wmo:42043:1,2019-11-08T17:00:00Z,28.9818,-94.9186,4.0,8.43,18.4,11.09,'11111222,11111222,11111222' 
TABS,ioos:station:wmo:42043:1,2019-11-08T18:00:00Z,28.9818,-94.9186,4.0,8.81,10.2,11.44,'11111222,11111222,11111222' 
TABS,ioos:station:wmo:42043:1,2019-11-08T19:00:00Z,28.9818,-94.9186,4.0,9.84,5.2,11.86,'11111222,11111222,11111222' 
TABS,ioos:station:wmo:42043:1,2019-11-08T20:00:00Z,28.9818,-94.9186,4.0,8.97,359.3,11.41,'11111222,11144222,11111222' 
TABS,ioos:station:wmo:42043:1,2019-11-08T21:00:00Z,28.9818,-94.9186,4.0,9.31,4.0,11.41,'11111222,11111222,11111222' 
TABS,ioos:station:wmo:42043:1,2019-11-08T22:00:00Z,28.9818,-94.9186,4.0,8.92,2.8,11.41,'11111222,11111222,11111222' 
TABS,ioos:station:wmo:42043:1,2019-11-08T23:00:00Z,28.9818,-94.9186,4.0,7.4,17.3,9.83,'11111222,11111222,11111222' 
TABS,ioos:station:wmo:42043:1,2019-11-08T23:30:00Z,28.9818,-94.9186,4.0,7.33,12.1,9.05,'11111222,11111222,11111222' 
TABS,ioos:station:wmo:42043:1,2019-11-09T05:00:00Z,28.9818,-94.9186,4.0,7.41,18.2,9.14,'11111222,11111222,11111222' 
TABS,ioos:station:wmo:42043:1,2019-11-09T06:00:00Z,28.9818,-94.9186,4.0,7.61,21.1,9.53,'11111222,11111222,11111222' 
TABS,ioos:station:wmo:42043:1,2019-11-09T07:00:00Z,28.9818,-94.9186,4.0,7.82,21.4,9.73,'11111222,11111222,11111222' 
TABS,ioos:station:wmo:42043:1,2019-11-09T08:00:00Z,28.9818,-94.9186,4.0,7.71,19.5,9.54,'11111222,11111222,11111222' 
TABS,ioos:station:wmo:42043:1,2019-11-09T09:00:00Z,28.9818,-94.9186,4.0,7.79,21.8,9.6,'11111222,11111222,11111222' 
TABS,ioos:station:wmo:42043:1,2019-11-09T10:00:00Z,28.9818,-94.9186,4.0,7.2,33.9,9.72,'11111222,11111222,11111222' 
TABS,ioos:station:wmo:42043:1,2019-11-09T11:00:00Z,28.9818,-94.9186,4.0,7.07,34.6,8.97,'11111222,11111222,11111222' 
TABS,ioos:station:wmo:42043:1,2019-11-09T12:00:00Z,28.9818,-94.9186,4.0,6.09,37.4,7.72,'11111222,11111222,11111222' 
TABS,ioos:station:wmo:42043:1,2019-11-09T13:00:00Z,28.9818,-94.9186,4.0,6.18,30.3,8.03,'11111222,11111222,11111222' 
TABS,ioos:station:wmo:42043:1,2019-11-09T14:00:00Z,28.9818,-94.9186,4.0,5.03,29.6,6.86,'11111222,11111222,11111222' 
TABS,ioos:station:wmo:42043:1,2019-11-09T15:00:00Z,28.9818,-94.9186,4.0,6.32,23.1,8.42,'11111222,11111222,11111222' 
TABS,ioos:station:wmo:42043:1,2019-11-09T16:00:00Z,28.9818,-94.9186,4.0,6.05,26.6,7.66,'11111222,11111222,11111222' 
TABS,ioos:station:wmo:42043:1,2019-11-09T17:00:00Z,28.9818,-94.9186,4.0,5.73,28.6,7.44,'11111222,11111222,11111222' 
TABS,ioos:station:wmo:42043:1,2019-11-09T18:00:00Z,28.9818,-94.9186,4.0,5.22,16.4,7.02,'11111222,11111222,11111222' 
TABS,ioos:station:wmo:42043:1,2019-11-09T19:00:00Z,28.9818,-94.9186,4.0,3.45,10.8,5.05,'11111222,11111222,11111222' 
TABS,ioos:station:wmo:42043:1,2019-11-09T20:00:00Z,28.9818,-94.9186,4.0,4.05,26.9,5.61,'11111222,11111222,11111222' 
TABS,ioos:station:wmo:42043:1,2019-11-09T21:00:00Z,28.9818,-94.9186,4.0,4.18,32.9,5.22,'11111222,11111222,11111222' 
TABS,ioos:station:wmo:42043:1,2019-11-09T22:00:00Z,28.9818,-94.9186,4.0,4.59,39.4,6.29,'11111222,11111222,11111222' 
TABS,ioos:station:wmo:42043:1,2019-11-09T23:00:00Z,28.9818,-94.9186,4.0,4.41,50.8,5.72,'11111222,11111222,11111222' 
TABS,ioos:station:wmo:42043:1,2019-11-09T23:30:00Z,28.9818,-94.9186,4.0,3.91,51.4,5.43,'11111222,11111222,11111222' 
TABS,ioos:station:wmo:42043:1,2019-11-10T05:00:00Z,28.9818,-94.9186,4.0,3.21,93.7,4.66,'11111222,11111222,11111222' 
TABS,ioos:station:wmo:42043:1,2019-11-10T06:00:00Z,28.9818,-94.9186,4.0,2.72,110.0,3.92,'11111222,11111222,11111222' 
TABS,ioos:station:wmo:42043:1,2019-11-10T07:00:00Z,28.9818,-94.9186,4.0,2.12,98.5,3.16,'11111222,11111222,11111222' 
TABS,ioos:station:wmo:42043:1,2019-11-10T08:00:00Z,28.9818,-94.9186,4.0,1.28,130.8,1.81,'11111222,11111222,11111222' 
TABS,ioos:station:wmo:42043:1,2019-11-10T09:00:00Z,28.9818,-94.9186,4.0,0.71,154.2,1.05,'11111222,11111222,11111222' 
TABS,ioos:station:wmo:42043:1,2019-11-10T10:00:00Z,28.9818,-94.9186,4.0,2.79,357.6,3.53,'11111222,11111222,11111222' 
TABS,ioos:station:wmo:42043:1,2019-11-10T11:00:00Z,28.9818,-94.9186,4.0,2.78,19.7,3.52,'11111222,11111222,11111222' 
TABS,ioos:station:wmo:42043:1,2019-11-10T11:30:00Z,28.9818,-94.9186,4.0,2.79,22.4,3.6,'11111222,11111222,11111222' 
TABS,ioos:station:wmo:42043:1,2019-11-10T13:00:00Z,28.9818,-94.9186,4.0,1.66,101.8,2.93,'11111222,11111222,11111222' 
TABS,ioos:station:wmo:42043:1,2019-11-10T13:30:00Z,28.9818,-94.9186,4.0,2.93,112.5,3.73,'11111222,11111222,11111222' 
TABS,ioos:station:wmo:42043:1,2019-11-10T14:30:00Z,28.9818,-94.9186,4.0,3.18,117.5,4.18,'11111222,11111222,11111222' 
TABS,ioos:station:wmo:42043:1,2019-11-10T15:30:00Z,28.9818,-94.9186,4.0,3.11,118.9,4.38,'11111222,11111222,11111222' 
TABS,ioos:station:wmo:42043:1,2019-11-10T16:30:00Z,28.9818,-94.9186,4.0,3.24,121.2,3.96,'11111222,11111222,11111222' 
TABS,ioos:station:wmo:42043:1,2019-11-10T18:00:00Z,28.9818,-94.9186,4.0,3.58,129.7,4.46,'11111222,11111222,11111222' 
TABS,ioos:station:wmo:42043:1,2019-11-10T19:00:00Z,28.9818,-94.9186,4.0,3.31,145.1,4.15,'11111222,11111222,11111222' 
TABS,ioos:station:wmo:42043:1,2019-11-10T19:30:00Z,28.9818,-94.9186,4.0,3.27,136.4,4.39,'11111222,11111222,11111222' 
TABS,ioos:station:wmo:42043:1,2019-11-10T21:00:00Z,28.9818,-94.9186,4.0,3.95,130.8,5.74,'11111222,11111222,11111222' 
TABS,ioos:station:wmo:42043:1,2019-11-10T22:00:00Z,28.9818,-94.9186,4.0,4.03,136.4,5.22,'11111222,11111222,11111222' 
TABS,ioos:station:wmo:42043:1,2019-11-10T23:00:00Z,28.9818,-94.9186,4.0,4.56,132.3,5.7,'11111222,11111222,11111222' 
TABS,ioos:station:wmo:42043:1,2019-11-10T23:30:00Z,28.9818,-94.9186,4.0,4.6,129.9,6.14,'11111222,11111222,11111222' 
TABS,ioos:station:wmo:42043:1,2019-11-11T05:00:00Z,28.9818,-94.9186,4.0,5.75,149.1,7.01,'11111222,11111222,11111222' 
TABS,ioos:station:wmo:42043:1,2019-11-11T06:00:00Z,28.9818,-94.9186,4.0,5.85,160.3,7.16,'11111222,11111222,11111222' 
TABS,ioos:station:wmo:42043:1,2019-11-11T07:00:00Z,28.9818,-94.9186,4.0,6.02,167.1,7.71,'11111222,11111222,11111222' 
TABS,ioos:station:wmo:42043:1,2019-11-11T09:00:00Z,28.9818,-94.9186,4.0,5.03,173.1,5.9,'11111222,11111222,11111222' 
TABS,ioos:station:wmo:42043:1,2019-11-11T10:00:00Z,28.9818,-94.9186,4.0,4.19,179.4,4.87,'11111222,11111222,11111222' 
TABS,ioos:station:wmo:42043:1,2019-11-11T10:30:00Z,28.9818,-94.9186,4.0,3.44,175.6,4.13,'11111222,11111222,11111222' 
TABS,ioos:station:wmo:42043:1,2019-11-11T12:00:00Z,28.9818,-94.9186,4.0,2.38,187.5,2.85,'11111222,11111222,11111222' 
TABS,ioos:station:wmo:42043:1,2019-11-11T13:00:00Z,28.9818,-94.9186,4.0,0.86,177.8,1.23,'11111222,11111222,11111222' 
TABS,ioos:station:wmo:42043:1,2019-11-11T14:00:00Z,28.9818,-94.9186,4.0,1.12,167.5,1.52,'11111222,11111222,11111222' 